Time,TemperatureF,DewpointF,PressureIn,WindDirection,WindDirectionDegrees,WindSpeedMPH,WindSpeedGustMPH,Humidity,HourlyPrecipIn,Conditions,Clouds,dailyrainin,SoftwareType,DateUTC
2013-08-14 00:00:00,70.8,69.6,29.83,East,92,0.0,0.0,96,0.00,,,0.13,Wunderground v.1.15,2013-08-14 04:00:00,
2013-08-14 00:05:00,70.8,69.6,29.83,East,92,0.0,0.0,96,0.00,,,0.00,Wunderground v.1.15,2013-08-14 04:05:00,
2013-08-14 00:10:00,70.8,69.6,29.83,East,92,0.0,0.0,96,0.00,,,0.00,Wunderground v.1.15,2013-08-14 04:10:00,
2013-08-14 00:15:00,70.7,69.5,29.82,East,92,0.0,0.0,96,0.00,,,0.00,Wunderground v.1.15,2013-08-14 04:15:00,
2013-08-14 00:25:00,70.6,69.4,29.82,East,92,0.0,0.0,96,0.00,,,0.00,Wunderground v.1.15,2013-08-14 04:25:00,
2013-08-14 00:30:00,70.6,69.4,29.82,East,92,0.0,0.0,96,0.00,,,0.00,Wunderground v.1.15,2013-08-14 04:30:00,
2013-08-14 00:35:00,70.5,69.3,29.82,East,92,0.0,0.0,96,0.00,,,0.00,Wunderground v.1.15,2013-08-14 04:35:00,
2013-08-14 00:40:00,70.4,69.2,29.82,East,92,0.0,0.0,96,0.00,,,0.00,Wunderground v.1.15,2013-08-14 04:40:00,
2013-08-14 00:50:00,70.3,69.1,29.83,East,92,0.0,0.0,96,0.00,,,0.00,Wunderground v.1.15,2013-08-14 04:50:00,
2013-08-14 00:55:00,70.3,69.1,29.83,East,92,0.0,0.0,96,0.00,,,0.00,Wunderground v.1.15,2013-08-14 04:55:00,
2013-08-14 01:00:00,70.2,69.0,29.82,East,92,0.0,0.0,96,0.00,,,0.00,Wunderground v.1.15,2013-08-14 05:00:00,
2013-08-14 01:10:00,70.0,68.8,29.82,East,92,0.0,0.0,96,0.00,,,0.00,Wunderground v.1.15,2013-08-14 05:10:00,
2013-08-14 01:15:00,69.9,68.7,29.82,East,92,0.0,0.0,96,0.00,,,0.00,Wunderground v.1.15,2013-08-14 05:15:00,
2013-08-14 01:20:00,69.8,68.6,29.82,East,92,0.0,0.0,96,0.00,,,0.00,Wunderground v.1.15,2013-08-14 05:20:00,
2013-08-14 01:30:00,69.6,68.4,29.82,East,92,0.0,0.0,96,0.00,,,0.00,Wunderground v.1.15,2013-08-14 05:30:00,
2013-08-14 01:35:00,69.5,68.3,29.82,East,92,0.0,0.0,96,0.00,,,0.00,Wunderground v.1.15,2013-08-14 05:35:00,
2013-08-14 01:40:00,69.5,68.3,29.82,East,92,0.0,0.0,96,0.00,,,0.00,Wunderground v.1.15,2013-08-14 05:40:00,
2013-08-14 01:45:00,69.3,68.1,29.83,East,92,0.0,0.0,96,0.00,,,0.00,Wunderground v.1.15,2013-08-14 05:45:00,
2013-08-14 01:55:00,69.2,68.0,29.83,East,92,0.0,0.0,96,0.00,,,0.00,Wunderground v.1.15,2013-08-14 05:55:00,
2013-08-14 02:00:00,69.1,67.9,29.83,East,92,0.0,0.0,96,0.00,,,0.00,Wunderground v.1.15,2013-08-14 06:00:00,
2013-08-14 02:05:00,69.1,68.2,29.83,East,92,0.0,0.0,97,0.00,,,0.00,Wunderground v.1.15,2013-08-14 06:05:00,
2013-08-14 02:15:00,69.1,68.2,29.83,East,92,0.0,0.0,97,0.00,,,0.00,Wunderground v.1.15,2013-08-14 06:15:00,
2013-08-14 02:20:00,69.0,68.1,29.83,East,92,0.0,0.0,97,0.00,,,0.00,Wunderground v.1.15,2013-08-14 06:20:00,
2013-08-14 02:25:00,69.0,68.1,29.83,East,92,0.0,0.0,97,0.00,,,0.00,Wunderground v.1.15,2013-08-14 06:25:00,
2013-08-14 02:35:00,69.0,68.1,29.83,East,92,0.0,0.0,97,0.00,,,0.00,Wunderground v.1.15,2013-08-14 06:35:00,
2013-08-14 02:40:00,69.0,68.1,29.83,East,92,0.0,0.0,97,0.00,,,0.00,Wunderground v.1.15,2013-08-14 06:40:00,
2013-08-14 02:45:00,69.0,68.1,29.83,East,92,0.0,0.0,97,0.00,,,0.00,Wunderground v.1.15,2013-08-14 06:45:00,
2013-08-14 02:50:00,68.9,67.7,29.83,East,92,0.0,0.0,96,0.00,,,0.00,Wunderground v.1.15,2013-08-14 06:50:00,
2013-08-14 03:00:00,68.9,67.7,29.83,East,92,0.0,0.0,96,0.00,,,0.00,Wunderground v.1.15,2013-08-14 07:00:00,
2013-08-14 03:05:00,68.9,67.7,29.83,East,92,0.0,0.0,96,0.00,,,0.00,Wunderground v.1.15,2013-08-14 07:05:00,
2013-08-14 03:10:00,68.9,68.0,29.84,East,92,0.0,0.0,97,0.00,,,0.00,Wunderground v.1.15,2013-08-14 07:10:00,
2013-08-14 03:20:00,68.9,68.0,29.84,East,92,0.0,0.0,97,0.00,,,0.00,Wunderground v.1.15,2013-08-14 07:20:00,
2013-08-14 03:25:00,68.9,67.7,29.84,East,92,0.0,0.0,96,0.00,,,0.00,Wunderground v.1.15,2013-08-14 07:25:00,
2013-08-14 03:30:00,68.9,67.7,29.84,East,92,0.0,0.0,96,0.00,,,0.00,Wunderground v.1.15,2013-08-14 07:30:00,
2013-08-14 03:40:00,68.6,67.4,29.84,East,92,0.0,0.0,96,0.00,,,0.00,Wunderground v.1.15,2013-08-14 07:40:00,
2013-08-14 03:45:00,68.6,67.4,29.83,SW,231,0.0,0.0,96,0.00,,,0.00,Wunderground v.1.15,2013-08-14 07:45:00,
2013-08-14 03:50:00,68.5,67.3,29.83,WSW,248,0.0,0.0,96,0.00,,,0.00,Wunderground v.1.15,2013-08-14 07:50:00,
2013-08-14 04:00:00,68.5,67.3,29.84,WSW,248,0.0,0.0,96,0.00,,,0.00,Wunderground v.1.15,2013-08-14 08:00:00,
2013-08-14 04:05:00,68.5,67.3,29.84,WSW,248,0.0,0.0,96,0.00,,,0.00,Wunderground v.1.15,2013-08-14 08:05:00,
2013-08-14 04:10:00,68.5,67.3,29.84,WSW,248,0.0,0.0,96,0.00,,,0.00,Wunderground v.1.15,2013-08-14 08:10:00,
2013-08-14 04:15:00,68.5,67.0,29.84,WSW,248,0.0,0.0,95,0.00,,,0.00,Wunderground v.1.15,2013-08-14 08:15:00,
2013-08-14 04:25:00,68.4,66.9,29.84,WSW,248,0.0,0.0,95,0.00,,,0.00,Wunderground v.1.15,2013-08-14 08:25:00,
2013-08-14 04:30:00,68.4,66.9,29.84,WSW,248,0.0,0.0,95,0.00,,,0.00,Wunderground v.1.15,2013-08-14 08:30:00,
2013-08-14 04:35:00,68.3,66.8,29.84,WSW,248,0.0,0.0,95,0.00,,,0.00,Wunderground v.1.15,2013-08-14 08:35:00,
2013-08-14 04:40:00,68.2,66.7,29.84,WSW,248,0.0,0.0,95,0.00,,,0.00,Wunderground v.1.15,2013-08-14 08:40:00,
2013-08-14 04:50:00,67.9,66.4,29.84,WSW,248,0.0,0.0,95,0.00,,,0.00,Wunderground v.1.15,2013-08-14 08:50:00,
2013-08-14 04:55:00,67.7,65.9,29.84,WSW,248,0.0,0.0,94,0.00,,,0.00,Wunderground v.1.15,2013-08-14 08:55:00,
2013-08-14 05:00:00,67.6,66.1,29.84,WSW,248,0.0,0.0,95,0.00,,,0.00,Wunderground v.1.15,2013-08-14 09:00:00,
2013-08-14 05:10:00,67.3,65.8,29.84,WSW,248,0.0,0.0,95,0.00,,,0.00,Wunderground v.1.15,2013-08-14 09:10:00,
2013-08-14 05:15:00,67.2,65.7,29.84,WSW,248,0.0,0.0,95,0.00,,,0.00,Wunderground v.1.15,2013-08-14 09:15:00,
2013-08-14 05:20:00,67.1,65.6,29.84,WSW,248,0.0,0.0,95,0.00,,,0.00,Wunderground v.1.15,2013-08-14 09:20:00,
2013-08-14 05:30:00,66.9,65.4,29.85,WSW,248,0.0,0.0,95,0.00,,,0.00,Wunderground v.1.15,2013-08-14 09:30:00,
2013-08-14 05:35:00,66.8,65.3,29.85,WSW,248,0.0,0.0,95,0.00,,,0.00,Wunderground v.1.15,2013-08-14 09:35:00,
2013-08-14 05:40:00,66.9,65.7,29.85,WSW,248,0.0,0.0,96,0.00,,,0.00,Wunderground v.1.15,2013-08-14 09:40:00,
2013-08-14 05:50:00,66.7,65.2,29.85,WSW,248,0.0,0.0,95,0.00,,,0.00,Wunderground v.1.15,2013-08-14 09:50:00,
2013-08-14 05:55:00,66.6,65.1,29.86,WSW,248,0.0,0.0,95,0.00,,,0.00,Wunderground v.1.15,2013-08-14 09:55:00,
2013-08-14 06:00:00,66.5,65.0,29.86,WSW,248,0.0,0.0,95,0.00,,,0.00,Wunderground v.1.15,2013-08-14 10:00:00,
2013-08-14 06:05:00,66.4,64.9,29.87,WSW,248,0.0,0.0,95,0.00,,,0.00,Wunderground v.1.15,2013-08-14 10:05:00,
2013-08-14 06:15:00,66.2,64.7,29.87,WSW,248,0.0,0.0,95,0.00,,,0.00,Wunderground v.1.15,2013-08-14 10:15:00,
2013-08-14 06:20:00,66.1,64.6,29.87,WSW,248,0.0,0.0,95,0.00,,,0.00,Wunderground v.1.15,2013-08-14 10:20:00,
2013-08-14 06:25:00,66.0,64.5,29.88,WSW,248,0.0,0.0,95,0.00,,,0.00,Wunderground v.1.15,2013-08-14 10:25:00,
2013-08-14 06:35:00,65.9,64.4,29.88,WSW,248,0.0,0.0,95,0.00,,,0.00,Wunderground v.1.15,2013-08-14 10:35:00,
2013-08-14 06:40:00,66.0,64.5,29.88,WSW,248,0.0,0.0,95,0.00,,,0.00,Wunderground v.1.15,2013-08-14 10:40:00,
2013-08-14 06:45:00,66.0,64.8,29.89,WSW,248,0.0,0.0,96,0.00,,,0.00,Wunderground v.1.15,2013-08-14 10:45:00,
2013-08-14 06:55:00,66.1,64.6,29.89,WSW,248,0.0,0.0,95,0.00,,,0.00,Wunderground v.1.15,2013-08-14 10:55:00,
2013-08-14 07:00:00,66.2,64.7,29.90,WSW,248,0.0,0.0,95,0.00,,,0.00,Wunderground v.1.15,2013-08-14 11:00:00,
2013-08-14 07:05:00,66.2,64.7,29.90,WSW,248,0.0,0.0,95,0.00,,,0.00,Wunderground v.1.15,2013-08-14 11:05:00,
2013-08-14 07:10:00,66.3,64.8,29.90,WSW,248,0.0,0.0,95,0.00,,,0.00,Wunderground v.1.15,2013-08-14 11:10:00,
2013-08-14 07:20:00,66.5,65.0,29.91,WSW,248,0.0,0.0,95,0.00,,,0.00,Wunderground v.1.15,2013-08-14 11:20:00,
2013-08-14 07:25:00,66.7,64.9,29.91,North,355,0.0,0.0,94,0.00,,,0.00,Wunderground v.1.15,2013-08-14 11:25:00,
2013-08-14 07:30:00,66.8,64.7,29.91,NW,320,0.0,0.0,93,0.00,,,0.00,Wunderground v.1.15,2013-08-14 11:30:00,
2013-08-14 07:40:00,67.2,64.8,29.92,ENE,59,0.0,0.0,92,0.00,,,0.00,Wunderground v.1.15,2013-08-14 11:40:00,
2013-08-14 07:45:00,67.5,64.5,29.92,North,5,0.0,0.0,90,0.00,,,0.00,Wunderground v.1.15,2013-08-14 11:45:00,
2013-08-14 07:50:00,67.9,64.9,29.92,East,87,0.0,0.0,90,0.00,,,0.00,Wunderground v.1.15,2013-08-14 11:50:00,
2013-08-14 07:55:00,68.0,64.6,29.92,East,87,0.0,0.0,89,0.00,,,0.00,Wunderground v.1.15,2013-08-14 11:55:00,
2013-08-14 08:05:00,68.3,64.9,29.93,ESE,109,0.0,0.0,89,0.00,,,0.00,Wunderground v.1.15,2013-08-14 12:05:00,
2013-08-14 08:10:00,68.5,64.8,29.93,NW,323,0.0,0.0,88,0.00,,,0.00,Wunderground v.1.15,2013-08-14 12:10:00,
2013-08-14 08:20:00,68.6,63.9,29.93,North,11,0.0,0.0,85,0.00,,,0.00,Wunderground v.1.15,2013-08-14 12:20:00,
2013-08-14 08:25:00,68.7,64.3,29.93,South,180,0.0,0.0,86,0.00,,,0.00,Wunderground v.1.15,2013-08-14 12:25:00,
2013-08-14 08:30:00,68.7,64.3,29.93,NNW,338,0.0,0.0,86,0.00,,,0.00,Wunderground v.1.15,2013-08-14 12:30:00,
2013-08-14 08:35:00,68.8,64.4,29.94,NNW,338,0.0,0.0,86,0.00,,,0.00,Wunderground v.1.15,2013-08-14 12:35:00,
2013-08-14 08:45:00,68.9,64.2,29.94,North,355,0.0,0.0,85,0.00,,,0.00,Wunderground v.1.15,2013-08-14 12:45:00,
2013-08-14 08:50:00,69.1,64.7,29.94,North,355,0.0,0.0,86,0.00,,,0.00,Wunderground v.1.15,2013-08-14 12:50:00,
2013-08-14 08:55:00,69.2,63.8,29.94,WSW,257,0.0,1.0,83,0.00,,,0.00,Wunderground v.1.15,2013-08-14 12:55:00,
2013-08-14 09:00:00,69.3,64.3,29.94,WSW,257,0.0,0.0,84,0.00,,,0.00,Wunderground v.1.15,2013-08-14 13:00:00,
2013-08-14 09:10:00,69.5,63.8,29.94,SSE,150,0.0,0.0,82,0.00,,,0.00,Wunderground v.1.15,2013-08-14 13:10:00,
2013-08-14 09:15:00,69.5,64.5,29.95,ESE,121,0.0,0.0,84,0.00,,,0.00,Wunderground v.1.15,2013-08-14 13:15:00,
2013-08-14 09:20:00,69.5,63.8,29.95,ESE,111,0.0,0.0,82,0.00,,,0.00,Wunderground v.1.15,2013-08-14 13:20:00,
2013-08-14 09:30:00,69.4,64.4,29.95,ESE,111,0.0,0.0,84,0.00,,,0.00,Wunderground v.1.15,2013-08-14 13:30:00,
2013-08-14 09:35:00,69.4,64.4,29.95,ESE,102,0.0,0.0,84,0.00,,,0.00,Wunderground v.1.15,2013-08-14 13:35:00,
2013-08-14 09:40:00,69.5,64.1,29.95,East,96,0.0,0.0,83,0.00,,,0.00,Wunderground v.1.15,2013-08-14 13:40:00,
2013-08-14 09:50:00,69.8,64.4,29.95,ENE,72,0.0,1.0,83,0.00,,,0.00,Wunderground v.1.15,2013-08-14 13:50:00,
2013-08-14 09:55:00,70.0,64.2,29.96,NE,42,1.0,1.0,82,0.00,,,0.00,Wunderground v.1.15,2013-08-14 13:55:00,
2013-08-14 10:00:00,70.2,64.1,29.96,ENE,64,1.0,1.0,81,0.00,,,0.00,Wunderground v.1.15,2013-08-14 14:00:00,
2013-08-14 10:10:00,70.4,63.9,29.96,NNW,328,0.0,0.0,80,0.00,,,0.00,Wunderground v.1.15,2013-08-14 14:10:00,
2013-08-14 10:15:00,70.6,64.8,29.96,ESE,105,0.0,0.0,82,0.00,,,0.00,Wunderground v.1.15,2013-08-14 14:15:00,
2013-08-14 10:20:00,70.6,64.5,29.96,East,88,0.0,0.0,81,0.00,,,0.00,Wunderground v.1.15,2013-08-14 14:20:00,
2013-08-14 10:25:00,70.5,64.0,29.97,East,82,0.0,0.0,80,0.00,,,0.00,Wunderground v.1.15,2013-08-14 14:25:00,
2013-08-14 10:35:00,70.6,64.1,29.97,East,87,0.0,0.0,80,0.00,,,0.00,Wunderground v.1.15,2013-08-14 14:35:00,
2013-08-14 10:40:00,70.8,64.0,29.97,SSW,197,0.0,0.0,79,0.00,,,0.00,Wunderground v.1.15,2013-08-14 14:40:00,
2013-08-14 10:45:00,70.9,64.1,29.97,ESE,119,0.0,0.0,79,0.00,,,0.00,Wunderground v.1.15,2013-08-14 14:45:00,
2013-08-14 10:50:00,70.9,64.1,29.97,ESE,119,0.0,0.0,79,0.00,,,0.00,Wunderground v.1.15,2013-08-14 14:50:00,
2013-08-14 11:00:00,70.8,63.6,29.98,WSW,252,0.0,0.0,78,0.00,,,0.00,Wunderground v.1.15,2013-08-14 15:00:00,
2013-08-14 11:05:00,70.8,63.6,29.98,SW,217,0.0,0.0,78,0.00,,,0.00,Wunderground v.1.15,2013-08-14 15:05:00,
2013-08-14 11:15:00,71.3,64.1,29.98,SE,142,0.0,1.0,78,0.00,,,0.00,Wunderground v.1.15,2013-08-14 15:15:00,
2013-08-14 11:20:00,71.8,64.9,29.98,West,269,0.0,0.0,79,0.00,,,0.00,Wunderground v.1.15,2013-08-14 15:20:00,
2013-08-14 11:25:00,72.3,63.9,29.98,South,177,0.0,0.0,75,0.00,,,0.00,Wunderground v.1.15,2013-08-14 15:25:00,
2013-08-14 11:30:00,72.7,61.5,29.98,East,96,0.0,1.0,68,0.00,,,0.00,Wunderground v.1.15,2013-08-14 15:30:00,
2013-08-14 11:40:00,73.4,62.2,29.98,ESE,107,1.0,1.0,68,0.00,,,0.00,Wunderground v.1.15,2013-08-14 15:40:00,
2013-08-14 11:45:00,73.4,63.0,29.98,WNW,285,1.0,4.0,70,0.00,,,0.00,Wunderground v.1.15,2013-08-14 15:45:00,
2013-08-14 11:50:00,73.5,62.3,29.98,WNW,289,1.0,1.0,68,0.00,,,0.00,Wunderground v.1.15,2013-08-14 15:50:00,
2013-08-14 12:00:00,74.1,63.7,29.98,ESE,103,0.0,0.0,70,0.00,,,0.00,Wunderground v.1.15,2013-08-14 16:00:00,
2013-08-14 12:05:00,74.4,61.4,29.98,NE,49,1.0,1.0,64,0.00,,,0.00,Wunderground v.1.15,2013-08-14 16:05:00,
2013-08-14 12:10:00,74.7,62.1,29.98,West,265,1.0,1.0,65,0.00,,,0.00,Wunderground v.1.15,2013-08-14 16:10:00,
2013-08-14 12:20:00,74.3,61.8,29.98,SSE,163,1.0,1.0,65,0.00,,,0.00,Wunderground v.1.15,2013-08-14 16:20:00,
2013-08-14 12:30:00,74.1,62.9,29.98,NNE,26,1.0,1.0,68,0.00,,,0.00,Wunderground v.1.15,2013-08-14 16:30:00,
2013-08-14 12:35:00,74.3,62.6,29.98,NE,50,0.0,1.0,67,0.00,,,0.00,Wunderground v.1.15,2013-08-14 16:35:00,
2013-08-14 12:40:00,74.3,63.1,29.98,WSW,238,0.0,0.0,68,0.00,,,0.00,Wunderground v.1.15,2013-08-14 16:40:00,
2013-08-14 12:50:00,74.0,62.3,29.98,South,190,0.0,0.0,67,0.00,,,0.00,Wunderground v.1.15,2013-08-14 16:50:00,
2013-08-14 12:55:00,74.0,63.2,29.98,South,190,0.0,0.0,69,0.00,,,0.00,Wunderground v.1.15,2013-08-14 16:55:00,
2013-08-14 13:05:00,73.8,64.2,29.98,NW,310,0.0,2.0,72,0.00,,,0.00,Wunderground v.1.15,2013-08-14 17:05:00,
2013-08-14 13:15:00,73.4,63.0,29.98,SSW,199,0.0,0.0,70,0.00,,,0.00,Wunderground v.1.15,2013-08-14 17:15:00,
2013-08-14 13:20:00,73.4,63.0,29.98,SSE,153,0.0,0.0,70,0.00,,,0.00,Wunderground v.1.15,2013-08-14 17:20:00,
2013-08-14 13:30:00,73.4,64.2,29.98,NW,317,0.0,0.0,73,0.00,,,0.00,Wunderground v.1.15,2013-08-14 17:30:00,
2013-08-14 13:35:00,73.5,62.7,29.98,NW,317,0.0,0.0,69,0.00,,,0.00,Wunderground v.1.15,2013-08-14 17:35:00,
2013-08-14 13:45:00,74.2,63.4,29.97,North,360,0.0,0.0,69,0.00,,,0.00,Wunderground v.1.15,2013-08-14 17:45:00,
2013-08-14 13:50:00,74.4,62.3,29.97,North,360,0.0,0.0,66,0.00,,,0.00,Wunderground v.1.15,2013-08-14 17:50:00,
2013-08-14 13:55:00,74.4,64.0,29.98,North,360,0.0,0.0,70,0.00,,,0.00,Wunderground v.1.15,2013-08-14 17:55:00,
2013-08-14 14:00:00,74.6,63.8,29.97,NW,309,0.0,0.0,69,0.00,,,0.00,Wunderground v.1.15,2013-08-14 18:00:00,
2013-08-14 14:10:00,75.0,65.4,29.97,West,281,0.0,1.0,72,0.00,,,0.00,Wunderground v.1.15,2013-08-14 18:10:00,
2013-08-14 14:15:00,75.3,64.0,29.97,ENE,66,0.0,1.0,68,0.00,,,0.00,Wunderground v.1.15,2013-08-14 18:15:00,
2013-08-14 14:25:00,75.2,63.1,29.97,North,5,0.0,1.0,66,0.00,,,0.00,Wunderground v.1.15,2013-08-14 18:25:00,
2013-08-14 14:35:00,75.0,63.3,29.97,North,5,0.0,0.0,67,0.00,,,0.00,Wunderground v.1.15,2013-08-14 18:35:00,
2013-08-14 14:45:00,74.9,64.5,29.97,North,5,0.0,1.0,70,0.00,,,0.00,Wunderground v.1.15,2013-08-14 18:45:00,
2013-08-14 14:50:00,74.7,64.7,29.97,NNE,23,0.0,0.0,71,0.00,,,0.00,Wunderground v.1.15,2013-08-14 18:50:00,
2013-08-14 15:05:00,74.7,63.9,29.97,NW,319,0.0,0.0,69,0.00,,,0.00,Wunderground v.1.15,2013-08-14 19:05:00,
2013-08-14 15:20:00,74.9,63.2,29.97,NNW,336,0.0,0.0,67,0.00,,,0.00,Wunderground v.1.15,2013-08-14 19:20:00,
2013-08-14 15:35:00,74.6,63.3,29.97,WSW,255,0.0,0.0,68,0.00,,,0.00,Wunderground v.1.15,2013-08-14 19:35:00,
2013-08-14 15:45:00,74.4,63.1,29.96,SSE,163,0.0,0.0,68,0.00,,,0.00,Wunderground v.1.15,2013-08-14 19:45:00,
2013-08-14 15:50:00,74.8,63.5,29.97,SSE,163,0.0,0.0,68,0.00,,,0.00,Wunderground v.1.15,2013-08-14 19:50:00,
2013-08-14 15:55:00,74.9,62.3,29.97,SSE,148,0.0,0.0,65,0.00,,,0.00,Wunderground v.1.15,2013-08-14 19:55:00,
2013-08-14 16:05:00,74.7,63.0,29.97,ENE,57,0.0,0.0,67,0.00,,,0.00,Wunderground v.1.15,2013-08-14 20:05:00,
2013-08-14 16:10:00,74.8,63.5,29.97,ENE,57,0.0,0.0,68,0.00,,,0.00,Wunderground v.1.15,2013-08-14 20:10:00,
2013-08-14 16:35:00,75.8,62.3,29.97,ENE,57,0.0,0.0,63,0.00,,,0.00,Wunderground v.1.15,2013-08-14 20:35:00,
2013-08-14 16:40:00,75.8,61.8,29.97,ENE,71,0.0,0.0,62,0.00,,,0.00,Wunderground v.1.15,2013-08-14 20:40:00,
2013-08-14 16:50:00,75.1,61.6,29.97,ENE,71,0.0,0.0,63,0.00,,,0.00,Wunderground v.1.15,2013-08-14 20:50:00,
2013-08-14 16:55:00,74.9,61.5,29.98,ENE,71,0.0,0.0,63,0.00,,,0.00,Wunderground v.1.15,2013-08-14 20:55:00,
2013-08-14 17:00:00,75.2,63.1,29.97,SSW,201,0.0,0.0,66,0.00,,,0.00,Wunderground v.1.15,2013-08-14 21:00:00,
2013-08-14 17:10:00,75.8,61.8,29.98,SSE,159,0.0,1.0,62,0.00,,,0.00,Wunderground v.1.15,2013-08-14 21:10:00,
2013-08-14 17:20:00,76.2,62.7,29.98,WNW,302,0.0,0.0,63,0.00,,,0.00,Wunderground v.1.15,2013-08-14 21:20:00,
2013-08-14 17:25:00,75.9,61.0,29.98,South,175,0.0,0.0,60,0.00,,,0.00,Wunderground v.1.15,2013-08-14 21:25:00,
2013-08-14 17:30:00,75.6,59.3,29.98,SE,146,0.0,0.0,57,0.00,,,0.00,Wunderground v.1.15,2013-08-14 21:30:00,
2013-08-14 17:40:00,75.4,60.5,29.98,NE,37,0.0,0.0,60,0.00,,,0.00,Wunderground v.1.15,2013-08-14 21:40:00,
2013-08-14 17:45:00,75.4,61.9,29.98,NE,37,0.0,0.0,63,0.00,,,0.00,Wunderground v.1.15,2013-08-14 21:45:00,
2013-08-14 17:50:00,75.1,60.7,29.98,NNE,30,0.0,0.0,61,0.00,,,0.00,Wunderground v.1.15,2013-08-14 21:50:00,
2013-08-14 18:00:00,74.6,58.8,29.98,NNE,30,0.0,0.0,58,0.00,,,0.00,Wunderground v.1.15,2013-08-14 22:00:00,
2013-08-14 18:05:00,74.6,59.3,29.99,NNE,30,0.0,0.0,59,0.00,,,0.00,Wunderground v.1.15,2013-08-14 22:05:00,
2013-08-14 18:15:00,74.9,60.1,29.99,NNE,30,0.0,0.0,60,0.00,,,0.00,Wunderground v.1.15,2013-08-14 22:15:00,
2013-08-14 18:20:00,74.9,60.1,29.98,NNE,30,0.0,0.0,60,0.00,,,0.00,Wunderground v.1.15,2013-08-14 22:20:00,
2013-08-14 18:30:00,74.7,60.4,29.98,NNE,30,0.0,0.0,61,0.00,,,0.00,Wunderground v.1.15,2013-08-14 22:30:00,
2013-08-14 18:40:00,74.5,60.2,29.98,NNE,30,0.0,0.0,61,0.00,,,0.00,Wunderground v.1.15,2013-08-14 22:40:00,
2013-08-14 18:45:00,74.2,60.3,29.98,NNE,30,0.0,0.0,62,0.00,,,0.00,Wunderground v.1.15,2013-08-14 22:45:00,
2013-08-14 18:55:00,73.1,59.3,29.99,NNE,30,0.0,0.0,62,0.00,,,0.00,Wunderground v.1.15,2013-08-14 22:55:00,
2013-08-14 19:00:00,72.8,59.5,29.99,NNE,30,0.0,0.0,63,0.00,,,0.00,Wunderground v.1.15,2013-08-14 23:00:00,
2013-08-14 19:10:00,72.1,59.7,29.99,NNE,30,0.0,0.0,65,0.00,,,0.00,Wunderground v.1.15,2013-08-14 23:10:00,
2013-08-14 19:20:00,71.4,59.4,29.99,NNE,30,0.0,0.0,66,0.00,,,0.00,Wunderground v.1.15,2013-08-14 23:20:00,
2013-08-14 19:30:00,70.6,60.3,29.99,NNE,30,0.0,0.0,70,0.00,,,0.00,Wunderground v.1.15,2013-08-14 23:30:00,
2013-08-14 19:35:00,70.3,61.2,30.00,NNE,30,0.0,0.0,73,0.00,,,0.00,Wunderground v.1.15,2013-08-14 23:35:00,
2013-08-14 19:40:00,69.9,61.2,30.00,NNE,30,0.0,0.0,74,0.00,,,0.00,Wunderground v.1.15,2013-08-14 23:40:00,
2013-08-14 19:45:00,69.3,60.7,30.00,NNE,30,0.0,0.0,74,0.00,,,0.00,Wunderground v.1.15,2013-08-14 23:45:00,
2013-08-14 19:55:00,68.1,61.0,30.00,NNE,30,0.0,0.0,78,0.00,,,0.00,Wunderground v.1.15,2013-08-14 23:55:00,
2013-08-14 20:00:00,67.6,60.9,30.00,NNE,30,0.0,0.0,79,0.00,,,0.00,Wunderground v.1.15,2013-08-15 00:00:00,
2013-08-14 20:10:00,66.7,60.7,30.00,NNE,30,0.0,0.0,81,0.00,,,0.00,Wunderground v.1.15,2013-08-15 00:10:00,
2013-08-14 20:15:00,66.3,60.3,30.01,NNE,30,0.0,0.0,81,0.00,,,0.00,Wunderground v.1.15,2013-08-15 00:15:00,
2013-08-14 20:20:00,65.9,60.2,30.01,NNE,30,0.0,0.0,82,0.00,,,0.00,Wunderground v.1.15,2013-08-15 00:20:00,
2013-08-14 20:30:00,65.1,60.1,30.01,NNE,30,0.0,0.0,84,0.00,,,0.00,Wunderground v.1.15,2013-08-15 00:30:00,
2013-08-14 20:35:00,64.7,60.1,30.02,NNE,30,0.0,0.0,85,0.00,,,0.00,Wunderground v.1.15,2013-08-15 00:35:00,
2013-08-14 20:40:00,64.4,59.8,30.01,NNE,30,0.0,0.0,85,0.00,,,0.00,Wunderground v.1.15,2013-08-15 00:40:00,
2013-08-14 20:50:00,63.8,59.9,30.03,NNE,30,0.0,0.0,87,0.00,,,0.00,Wunderground v.1.15,2013-08-15 00:50:00,
2013-08-14 20:55:00,63.5,59.9,30.03,NNE,30,0.0,0.0,88,0.00,,,0.00,Wunderground v.1.15,2013-08-15 00:55:00,
2013-08-14 21:00:00,63.3,60.0,30.03,NNE,30,0.0,0.0,89,0.00,,,0.00,Wunderground v.1.15,2013-08-15 01:00:00,
2013-08-14 21:05:00,63.1,59.8,30.03,NNE,30,0.0,0.0,89,0.00,,,0.00,Wunderground v.1.15,2013-08-15 01:05:00,
2013-08-14 21:15:00,62.7,59.7,30.03,NNE,30,0.0,0.0,90,0.00,,,0.00,Wunderground v.1.15,2013-08-15 01:15:00,
2013-08-14 21:20:00,62.6,59.9,30.03,NNE,30,0.0,0.0,91,0.00,,,0.00,Wunderground v.1.15,2013-08-15 01:20:00,
2013-08-14 21:25:00,62.6,59.9,30.03,NNE,30,0.0,0.0,91,0.00,,,0.00,Wunderground v.1.15,2013-08-15 01:25:00,
2013-08-14 21:30:00,62.6,59.9,30.03,NNE,30,0.0,0.0,91,0.00,,,0.00,Wunderground v.1.15,2013-08-15 01:30:00,
2013-08-14 21:40:00,62.5,60.1,30.03,NNE,30,0.0,0.0,92,0.00,,,0.00,Wunderground v.1.15,2013-08-15 01:40:00,
2013-08-14 21:45:00,62.5,60.1,30.04,NNE,30,0.0,0.0,92,0.00,,,0.00,Wunderground v.1.15,2013-08-15 01:45:00,
2013-08-14 21:55:00,62.3,59.9,30.04,NNE,30,0.0,0.0,92,0.00,,,0.00,Wunderground v.1.15,2013-08-15 01:55:00,
2013-08-14 22:00:00,62.2,60.2,30.04,NNE,30,0.0,0.0,93,0.00,,,0.00,Wunderground v.1.15,2013-08-15 02:00:00,
2013-08-14 22:05:00,62.2,60.2,30.05,NNE,30,0.0,0.0,93,0.00,,,0.00,Wunderground v.1.15,2013-08-15 02:05:00,
2013-08-14 22:15:00,62.1,60.1,30.05,NNE,30,0.0,0.0,93,0.00,,,0.00,Wunderground v.1.15,2013-08-15 02:15:00,
2013-08-14 22:20:00,62.0,60.0,30.05,NNE,30,0.0,0.0,93,0.00,,,0.00,Wunderground v.1.15,2013-08-15 02:20:00,
2013-08-14 22:25:00,62.0,60.3,30.05,NNE,30,0.0,0.0,94,0.00,,,0.00,Wunderground v.1.15,2013-08-15 02:25:00,
2013-08-14 22:35:00,62.0,60.3,30.05,NNE,30,0.0,0.0,94,0.00,,,0.00,Wunderground v.1.15,2013-08-15 02:35:00,
2013-08-14 22:40:00,62.0,60.3,30.05,NNE,30,0.0,0.0,94,0.00,,,0.00,Wunderground v.1.15,2013-08-15 02:40:00,
2013-08-14 22:45:00,62.0,60.3,30.05,NNE,30,0.0,0.0,94,0.00,,,0.00,Wunderground v.1.15,2013-08-15 02:45:00,
2013-08-14 22:50:00,62.0,60.3,30.06,NNE,30,0.0,0.0,94,0.00,,,0.00,Wunderground v.1.15,2013-08-15 02:50:00,
2013-08-14 23:00:00,61.9,60.2,30.06,NNE,30,0.0,0.0,94,0.00,,,0.00,Wunderground v.1.15,2013-08-15 03:00:00,
2013-08-14 23:05:00,61.9,60.5,30.06,NNE,30,0.0,0.0,95,0.00,,,0.00,Wunderground v.1.15,2013-08-15 03:05:00,
2013-08-14 23:10:00,61.9,60.5,30.06,NNE,30,0.0,0.0,95,0.00,,,0.00,Wunderground v.1.15,2013-08-15 03:10:00,
2013-08-14 23:20:00,62.0,60.6,30.06,NNE,30,0.0,0.0,95,0.00,,,0.00,Wunderground v.1.15,2013-08-15 03:20:00,
2013-08-14 23:25:00,61.9,60.5,30.06,NNE,30,0.0,0.0,95,0.00,,,0.00,Wunderground v.1.15,2013-08-15 03:25:00,
2013-08-14 23:30:00,61.9,60.5,30.06,NNE,30,0.0,0.0,95,0.00,,,0.00,Wunderground v.1.15,2013-08-15 03:30:00,
2013-08-14 23:40:00,61.8,60.4,30.06,NNE,30,0.0,0.0,95,0.00,,,0.00,Wunderground v.1.15,2013-08-15 03:40:00,
2013-08-14 23:45:00,61.8,60.4,30.06,NNE,30,0.0,0.0,95,0.00,,,0.00,Wunderground v.1.15,2013-08-15 03:45:00,
2013-08-14 23:50:00,61.7,60.3,30.06,NNE,30,0.0,0.0,95,0.00,,,0.00,Wunderground v.1.15,2013-08-15 03:50:00,
2013-08-14 23:55:00,61.7,60.3,30.06,NNE,30,0.0,0.0,95,0.00,,,0.00,Wunderground v.1.15,2013-08-15 03:55:00,